Location: LewisvilleTX
(33.0462°N, 96.9942°W)
Time: 01:58:18
(UTC+00:00)

Envisat - Pass Details

Date: 01 October 2021
Orbit: 764 x 766 km, 98.2° (Epoch: 17 October)

Event Time Altitude Azimuth Distance (km) Brightness Sun altitude
Rises 10:19:05 0° 36° (NE) 3,232 7.0 -26.5°
Reaches altitude 10° 10:22:29 10° 60° (ENE) 2,300 6.4 -25.8°
Maximum altitude 10:25:14 15° 93° (E) 1,996 6.0 -25.2°
Drops below altitude 10° 10:27:57 10° 126° (SE) 2,293 6.0 -24.7°
Sets 10:31:19 0° 150° (SSE) 3,214 6.5 -24.0°
